Year,Month,Day,Hour,Minute,Value (Times are PST for insolation in W/m^2)
2014,02,25,00,00,0.00
2014,02,25,00,01,0.00
2014,02,25,00,02,0.00
2014,02,25,00,03,0.00
2014,02,25,00,04,0.00
2014,02,25,00,05,0.00
2014,02,25,00,06,0.00
2014,02,25,00,07,0.00
2014,02,25,00,08,0.00
2014,02,25,00,09,0.00
2014,02,25,00,10,0.00
2014,02,25,00,11,0.00
2014,02,25,00,12,0.00
2014,02,25,00,13,0.00
2014,02,25,00,14,0.00
2014,02,25,00,15,0.00
2014,02,25,00,16,0.00
2014,02,25,00,17,0.00
2014,02,25,00,18,0.00
2014,02,25,00,19,0.00
2014,02,25,00,20,0.00
2014,02,25,00,21,0.00
2014,02,25,00,22,0.00
2014,02,25,00,23,0.00
2014,02,25,00,24,0.00
2014,02,25,00,25,0.00
2014,02,25,00,26,0.00
2014,02,25,00,27,0.00
2014,02,25,00,28,0.00
2014,02,25,00,29,0.00
2014,02,25,00,30,0.00
2014,02,25,00,31,0.00
2014,02,25,00,32,0.00
2014,02,25,00,33,0.00
2014,02,25,00,34,0.00
2014,02,25,00,35,0.00
2014,02,25,00,36,0.00
2014,02,25,00,37,0.00
2014,02,25,00,38,0.00
2014,02,25,00,39,0.00
2014,02,25,00,40,0.00
2014,02,25,00,41,0.00
2014,02,25,00,42,0.00
2014,02,25,00,43,0.00
2014,02,25,00,44,0.00
2014,02,25,00,45,0.00
2014,02,25,00,46,0.00
2014,02,25,00,47,0.00
2014,02,25,00,48,0.00
2014,02,25,00,49,0.00
2014,02,25,00,50,0.00
2014,02,25,00,51,0.00
2014,02,25,00,52,0.00
2014,02,25,00,53,0.00
2014,02,25,00,54,0.00
2014,02,25,00,55,0.00
2014,02,25,00,56,0.00
2014,02,25,00,57,0.00
2014,02,25,00,58,0.00
2014,02,25,00,59,0.00
2014,02,25,01,00,0.00
2014,02,25,01,01,0.00
2014,02,25,01,02,0.00
2014,02,25,01,03,0.00
2014,02,25,01,04,0.00
2014,02,25,01,05,0.00
2014,02,25,01,06,0.00
2014,02,25,01,07,0.00
2014,02,25,01,08,0.00
2014,02,25,01,09,0.00
2014,02,25,01,10,0.00
2014,02,25,01,11,0.00
2014,02,25,01,12,0.00
2014,02,25,01,13,0.00
2014,02,25,01,14,0.00
2014,02,25,01,15,0.00
2014,02,25,01,16,0.00
2014,02,25,01,17,0.00
2014,02,25,01,18,0.00
2014,02,25,01,19,0.00
2014,02,25,01,20,0.00
2014,02,25,01,21,0.00
2014,02,25,01,22,0.00
2014,02,25,01,23,0.00
2014,02,25,01,24,0.00
2014,02,25,01,25,0.00
2014,02,25,01,26,0.00
2014,02,25,01,27,0.00
2014,02,25,01,28,0.00
2014,02,25,01,29,0.00
2014,02,25,01,30,0.00
2014,02,25,01,31,0.00
2014,02,25,01,32,0.00
2014,02,25,01,33,0.00
2014,02,25,01,34,0.00
2014,02,25,01,35,0.00
2014,02,25,01,36,0.00
2014,02,25,01,37,0.00
2014,02,25,01,38,0.00
2014,02,25,01,39,0.00
2014,02,25,01,40,0.00
2014,02,25,01,41,0.00
2014,02,25,01,42,0.00
2014,02,25,01,43,0.00
2014,02,25,01,44,0.00
2014,02,25,01,45,0.00
2014,02,25,01,46,0.00
2014,02,25,01,47,0.00
2014,02,25,01,48,0.00
2014,02,25,01,49,0.00
2014,02,25,01,50,0.00
2014,02,25,01,51,0.00
2014,02,25,01,52,0.00
2014,02,25,01,53,0.00
2014,02,25,01,54,0.00
2014,02,25,01,55,0.00
2014,02,25,01,56,0.00
2014,02,25,01,57,0.00
2014,02,25,01,58,0.00
2014,02,25,01,59,0.00
2014,02,25,02,00,0.00
2014,02,25,02,01,0.00
2014,02,25,02,02,0.00
2014,02,25,02,03,0.00
2014,02,25,02,04,0.00
2014,02,25,02,05,0.00
2014,02,25,02,06,0.00
2014,02,25,02,07,0.00
2014,02,25,02,08,0.00
2014,02,25,02,09,0.00
2014,02,25,02,10,0.00
2014,02,25,02,11,0.00
2014,02,25,02,12,0.00
2014,02,25,02,13,0.00
2014,02,25,02,14,0.00
2014,02,25,02,15,0.00
2014,02,25,02,16,0.00
2014,02,25,02,17,0.00
2014,02,25,02,18,0.00
2014,02,25,02,19,0.00
2014,02,25,02,20,0.00
2014,02,25,02,21,0.00
2014,02,25,02,22,0.00
2014,02,25,02,23,0.00
2014,02,25,02,24,0.00
2014,02,25,02,25,0.00
2014,02,25,02,26,0.00
2014,02,25,02,27,0.00
2014,02,25,02,28,0.00
2014,02,25,02,29,0.00
2014,02,25,02,30,0.00
2014,02,25,02,31,0.00
2014,02,25,02,32,0.00
2014,02,25,02,33,0.00
2014,02,25,02,34,0.00
2014,02,25,02,35,0.00
2014,02,25,02,36,0.00
2014,02,25,02,37,0.00
2014,02,25,02,38,0.00
2014,02,25,02,39,0.00
2014,02,25,02,40,0.00
2014,02,25,02,41,0.00
2014,02,25,02,42,0.00
2014,02,25,02,43,0.00
2014,02,25,02,44,0.00
2014,02,25,02,45,0.00
2014,02,25,02,46,0.00
2014,02,25,02,47,0.00
2014,02,25,02,48,0.00
2014,02,25,02,49,0.00
2014,02,25,02,50,0.00
2014,02,25,02,51,0.00
2014,02,25,02,52,0.00
2014,02,25,02,53,0.00
2014,02,25,02,54,0.00
2014,02,25,02,55,0.00
2014,02,25,02,56,0.00
2014,02,25,02,57,0.00
2014,02,25,02,58,0.00
2014,02,25,02,59,0.00
2014,02,25,03,00,0.00
2014,02,25,03,01,0.00
2014,02,25,03,02,0.00
2014,02,25,03,03,0.00
2014,02,25,03,04,0.00
2014,02,25,03,05,0.00
2014,02,25,03,06,0.00
2014,02,25,03,07,0.00
2014,02,25,03,08,0.00
2014,02,25,03,09,0.00
2014,02,25,03,10,0.00
2014,02,25,03,11,0.00
2014,02,25,03,12,0.00
2014,02,25,03,13,0.00
2014,02,25,03,14,0.00
2014,02,25,03,15,0.00
2014,02,25,03,16,0.00
2014,02,25,03,17,0.00
2014,02,25,03,18,0.00
2014,02,25,03,19,0.00
2014,02,25,03,20,0.00
2014,02,25,03,21,0.00
2014,02,25,03,22,0.00
2014,02,25,03,23,0.00
2014,02,25,03,24,0.00
2014,02,25,03,25,0.00
2014,02,25,03,26,0.00
2014,02,25,03,27,0.00
2014,02,25,03,28,0.00
2014,02,25,03,29,0.00
2014,02,25,03,30,0.00
2014,02,25,03,31,0.00
2014,02,25,03,32,0.00
2014,02,25,03,33,0.00
2014,02,25,03,34,0.00
2014,02,25,03,35,0.00
2014,02,25,03,36,0.00
2014,02,25,03,37,0.00
2014,02,25,03,38,0.00
2014,02,25,03,39,0.00
2014,02,25,03,40,0.00
2014,02,25,03,41,0.00
2014,02,25,03,42,0.00
2014,02,25,03,43,0.00
2014,02,25,03,44,0.00
2014,02,25,03,45,0.00
2014,02,25,03,46,0.00
2014,02,25,03,47,0.00
2014,02,25,03,48,0.00
2014,02,25,03,49,0.00
2014,02,25,03,50,0.00
2014,02,25,03,51,0.00
2014,02,25,03,52,0.00
2014,02,25,03,53,0.00
2014,02,25,03,54,0.00
2014,02,25,03,55,0.00
2014,02,25,03,56,0.00
2014,02,25,03,57,0.00
2014,02,25,03,58,0.00
2014,02,25,03,59,0.00
2014,02,25,04,00,0.00
2014,02,25,04,01,0.00
2014,02,25,04,02,0.00
2014,02,25,04,03,0.00
2014,02,25,04,04,0.00
2014,02,25,04,05,0.00
2014,02,25,04,06,0.00
2014,02,25,04,07,0.00
2014,02,25,04,08,0.00
2014,02,25,04,09,0.00
2014,02,25,04,10,0.00
2014,02,25,04,11,0.00
2014,02,25,04,12,0.00
2014,02,25,04,13,0.00
2014,02,25,04,14,0.00
2014,02,25,04,15,0.00
2014,02,25,04,16,0.00
2014,02,25,04,17,0.00
2014,02,25,04,18,0.00
2014,02,25,04,19,0.00
2014,02,25,04,20,0.00
2014,02,25,04,21,0.00
2014,02,25,04,22,0.00
2014,02,25,04,23,0.00
2014,02,25,04,24,0.00
2014,02,25,04,25,0.00
2014,02,25,04,26,0.00
2014,02,25,04,27,0.00
2014,02,25,04,28,0.00
2014,02,25,04,29,0.00
2014,02,25,04,30,0.00
2014,02,25,04,31,0.00
2014,02,25,04,32,0.00
2014,02,25,04,33,0.00
2014,02,25,04,34,0.00
2014,02,25,04,35,0.00
2014,02,25,04,36,0.00
2014,02,25,04,37,0.00
2014,02,25,04,38,0.00
2014,02,25,04,39,0.00
2014,02,25,04,40,0.00
2014,02,25,04,41,0.00
2014,02,25,04,42,0.00
2014,02,25,04,43,0.00
2014,02,25,04,44,0.00
2014,02,25,04,45,0.00
2014,02,25,04,46,0.00
2014,02,25,04,47,0.00
2014,02,25,04,48,0.00
2014,02,25,04,49,0.00
2014,02,25,04,50,0.00
2014,02,25,04,51,0.00
2014,02,25,04,52,0.00
2014,02,25,04,53,0.00
2014,02,25,04,54,0.00
2014,02,25,04,55,0.00
2014,02,25,04,56,0.00
2014,02,25,04,57,0.00
2014,02,25,04,58,0.00
2014,02,25,04,59,0.00
2014,02,25,05,00,0.00
2014,02,25,05,01,0.00
2014,02,25,05,02,0.00
2014,02,25,05,03,0.00
2014,02,25,05,04,0.00
2014,02,25,05,05,0.00
2014,02,25,05,06,0.00
2014,02,25,05,07,0.00
2014,02,25,05,08,0.00
2014,02,25,05,09,0.00
2014,02,25,05,10,0.00
2014,02,25,05,11,0.00
2014,02,25,05,12,0.00
2014,02,25,05,13,0.00
2014,02,25,05,14,0.00
2014,02,25,05,15,0.00
2014,02,25,05,16,0.00
2014,02,25,05,17,0.00
2014,02,25,05,18,0.00
2014,02,25,05,19,0.00
2014,02,25,05,20,0.00
2014,02,25,05,21,0.00
2014,02,25,05,22,0.00
2014,02,25,05,23,0.00
2014,02,25,05,24,0.00
2014,02,25,05,25,0.00
2014,02,25,05,26,0.00
2014,02,25,05,27,0.00
2014,02,25,05,28,0.00
2014,02,25,05,29,0.00
2014,02,25,05,30,0.00
2014,02,25,05,31,0.00
2014,02,25,05,32,0.00
2014,02,25,05,33,0.00
2014,02,25,05,34,0.00
2014,02,25,05,35,0.00
2014,02,25,05,36,0.00
2014,02,25,05,37,0.00
2014,02,25,05,38,0.00
2014,02,25,05,39,0.00
2014,02,25,05,40,0.00
2014,02,25,05,41,0.00
2014,02,25,05,42,0.00
2014,02,25,05,43,0.00
2014,02,25,05,44,0.00
2014,02,25,05,45,0.00
2014,02,25,05,46,0.00
2014,02,25,05,47,0.00
2014,02,25,05,48,0.00
2014,02,25,05,49,0.00
2014,02,25,05,50,0.00
2014,02,25,05,51,0.00
2014,02,25,05,52,0.00
2014,02,25,05,53,0.00
2014,02,25,05,54,0.00
2014,02,25,05,55,0.00
2014,02,25,05,56,0.00
2014,02,25,05,57,0.00
2014,02,25,05,58,0.00
2014,02,25,05,59,0.00
2014,02,25,06,00,0.00
2014,02,25,06,01,0.00
2014,02,25,06,02,0.00
2014,02,25,06,03,0.00
2014,02,25,06,04,0.00
2014,02,25,06,05,0.00
2014,02,25,06,06,0.00
2014,02,25,06,07,0.00
2014,02,25,06,08,0.00
2014,02,25,06,09,0.00
2014,02,25,06,10,0.00
2014,02,25,06,11,0.00
2014,02,25,06,12,0.00
2014,02,25,06,13,0.00
2014,02,25,06,14,0.00
2014,02,25,06,15,0.00
2014,02,25,06,16,0.00
2014,02,25,06,17,0.00
2014,02,25,06,18,0.00
2014,02,25,06,19,0.00
2014,02,25,06,20,0.00
2014,02,25,06,21,0.00
2014,02,25,06,22,0.00
2014,02,25,06,23,0.00
2014,02,25,06,24,0.00
2014,02,25,06,25,0.00
2014,02,25,06,26,0.00
2014,02,25,06,27,0.00
2014,02,25,06,28,0.00
2014,02,25,06,29,0.00
2014,02,25,06,30,0.00
2014,02,25,06,31,0.00
2014,02,25,06,32,0.00
2014,02,25,06,33,0.00
2014,02,25,06,34,0.00
2014,02,25,06,35,0.00
2014,02,25,06,36,0.00
2014,02,25,06,37,0.00
2014,02,25,06,38,0.00
2014,02,25,06,39,0.00
2014,02,25,06,40,0.00
2014,02,25,06,41,0.00
2014,02,25,06,42,0.00
2014,02,25,06,43,0.00
2014,02,25,06,44,0.00
2014,02,25,06,45,0.00
2014,02,25,06,46,0.00
2014,02,25,06,47,0.00
2014,02,25,06,48,0.00
2014,02,25,06,49,0.00
2014,02,25,06,50,0.00
2014,02,25,06,51,0.00
2014,02,25,06,52,0.00
2014,02,25,06,53,0.00
2014,02,25,06,54,0.00
2014,02,25,06,55,0.00
2014,02,25,06,56,0.00
2014,02,25,06,57,0.00
2014,02,25,06,58,0.00
2014,02,25,06,59,0.00
2014,02,25,07,00,0.00
2014,02,25,07,01,0.00
2014,02,25,07,02,0.00
2014,02,25,07,03,0.00
2014,02,25,07,04,0.00
2014,02,25,07,05,0.00
2014,02,25,07,06,0.00
2014,02,25,07,07,0.00
2014,02,25,07,08,0.00
2014,02,25,07,09,0.00
2014,02,25,07,10,0.00
2014,02,25,07,11,0.00
2014,02,25,07,12,0.00
2014,02,25,07,13,0.00
2014,02,25,07,14,0.00
2014,02,25,07,15,0.00
2014,02,25,07,16,2.40
2014,02,25,07,17,5.00
2014,02,25,07,18,5.00
2014,02,25,07,19,5.00
2014,02,25,07,20,5.00
2014,02,25,07,21,5.00
2014,02,25,07,22,5.00
2014,02,25,07,23,5.00
2014,02,25,07,24,5.00
2014,02,25,07,25,5.00
2014,02,25,07,26,6.80
2014,02,25,07,27,7.00
2014,02,25,07,28,7.00
2014,02,25,07,29,7.00
2014,02,25,07,30,7.00
2014,02,25,07,31,7.00
2014,02,25,07,32,7.00
2014,02,25,07,33,7.40
2014,02,25,07,34,9.00
2014,02,25,07,35,9.00
2014,02,25,07,36,9.70
2014,02,25,07,37,11.00
2014,02,25,07,38,11.00
2014,02,25,07,39,11.50
2014,02,25,07,40,12.00
2014,02,25,07,41,13.10
2014,02,25,07,42,14.00
2014,02,25,07,43,15.30
2014,02,25,07,44,17.30
2014,02,25,07,45,18.00
2014,02,25,07,46,18.00
2014,02,25,07,47,18.80
2014,02,25,07,48,19.00
2014,02,25,07,49,19.00
2014,02,25,07,50,20.80
2014,02,25,07,51,22.90
2014,02,25,07,52,23.00
2014,02,25,07,53,23.00
2014,02,25,07,54,23.00
2014,02,25,07,55,23.30
2014,02,25,07,56,25.00
2014,02,25,07,57,25.00
2014,02,25,07,58,25.00
2014,02,25,07,59,25.30
2014,02,25,08,00,26.00
2014,02,25,08,01,26.00
2014,02,25,08,02,26.00
2014,02,25,08,03,26.00
2014,02,25,08,04,26.00
2014,02,25,08,05,27.20
2014,02,25,08,06,28.00
2014,02,25,08,07,28.00
2014,02,25,08,08,28.00
2014,02,25,08,09,28.00
2014,02,25,08,10,29.60
2014,02,25,08,11,31.60
2014,02,25,08,12,32.80
2014,02,25,08,13,34.80
2014,02,25,08,14,36.90
2014,02,25,08,15,36.90
2014,02,25,08,16,35.00
2014,02,25,08,17,35.00
2014,02,25,08,18,35.00
2014,02,25,08,19,35.00
2014,02,25,08,20,34.50
2014,02,25,08,21,33.00
2014,02,25,08,22,33.00
2014,02,25,08,23,32.60
2014,02,25,08,24,32.00
2014,02,25,08,25,32.00
2014,02,25,08,26,31.00
2014,02,25,08,27,30.00
2014,02,25,08,28,30.00
2014,02,25,08,29,30.00
2014,02,25,08,30,30.00
2014,02,25,08,31,30.00
2014,02,25,08,32,30.00
2014,02,25,08,33,31.60
2014,02,25,08,34,32.80
2014,02,25,08,35,33.00
2014,02,25,08,36,34.80
2014,02,25,08,37,36.90
2014,02,25,08,38,39.10
2014,02,25,08,39,40.00
2014,02,25,08,40,40.30
2014,02,25,08,41,42.00
2014,02,25,08,42,42.40
2014,02,25,08,43,44.00
2014,02,25,08,44,44.60
2014,02,25,08,45,46.30
2014,02,25,08,46,48.60
2014,02,25,08,47,51.80
2014,02,25,08,48,54.30
2014,02,25,08,49,56.90
2014,02,25,08,50,59.00
2014,02,25,08,51,61.20
2014,02,25,08,52,62.70
2014,02,25,08,53,67.10
2014,02,25,08,54,72.50
2014,02,25,08,55,74.00
2014,02,25,08,56,83.60
2014,02,25,08,57,90.20
2014,02,25,08,58,92.70
2014,02,25,08,59,97.50
2014,02,25,09,00,99.90
2014,02,25,09,01,105.20
2014,02,25,09,02,109.20
2014,02,25,09,03,111.40
2014,02,25,09,04,114.60
2014,02,25,09,05,118.40
2014,02,25,09,06,120.20
2014,02,25,09,07,120.70
2014,02,25,09,08,119.40
2014,02,25,09,09,118.80
2014,02,25,09,10,120.00
2014,02,25,09,11,120.00
2014,02,25,09,12,120.00
2014,02,25,09,13,120.00
2014,02,25,09,14,120.00
2014,02,25,09,15,120.00
2014,02,25,09,16,120.00
2014,02,25,09,17,120.00
2014,02,25,09,18,120.00
2014,02,25,09,19,120.00
2014,02,25,09,20,120.00
2014,02,25,09,21,120.80
2014,02,25,09,22,124.60
2014,02,25,09,23,126.90
2014,02,25,09,24,128.00
2014,02,25,09,25,128.20
2014,02,25,09,26,129.70
2014,02,25,09,27,128.00
2014,02,25,09,28,127.80
2014,02,25,09,29,127.00
2014,02,25,09,30,127.00
2014,02,25,09,31,127.30
2014,02,25,09,32,128.80
2014,02,25,09,33,130.90
2014,02,25,09,34,132.90
2014,02,25,09,35,135.50
2014,02,25,09,36,138.10
2014,02,25,09,37,140.20
2014,02,25,09,38,141.60
2014,02,25,09,39,144.70
2014,02,25,09,40,146.00
2014,02,25,09,41,147.50
2014,02,25,09,42,150.40
2014,02,25,09,43,152.60
2014,02,25,09,44,154.70
2014,02,25,09,45,157.70
2014,02,25,09,46,161.80
2014,02,25,09,47,163.20
2014,02,25,09,48,167.20
2014,02,25,09,49,169.30
2014,02,25,09,50,171.20
2014,02,25,09,51,172.40
2014,02,25,09,52,174.50
2014,02,25,09,53,176.60
2014,02,25,09,54,178.30
2014,02,25,09,55,179.70
2014,02,25,09,56,183.00
2014,02,25,09,57,186.90
2014,02,25,09,58,190.00
2014,02,25,09,59,190.90
2014,02,25,10,00,191.10
2014,02,25,10,01,192.60
2014,02,25,10,02,194.30
2014,02,25,10,03,197.90
2014,02,25,10,04,199.00
2014,02,25,10,05,199.80
2014,02,25,10,06,201.60
2014,02,25,10,07,203.70
2014,02,25,10,08,206.70
2014,02,25,10,09,208.90
2014,02,25,10,10,211.10
2014,02,25,10,11,214.20
2014,02,25,10,12,216.30
2014,02,25,10,13,218.40
2014,02,25,10,14,220.20
2014,02,25,10,15,221.50
2014,02,25,10,16,223.00
2014,02,25,10,17,223.00
2014,02,25,10,18,223.00
2014,02,25,10,19,223.00
2014,02,25,10,20,223.90
2014,02,25,10,21,226.00
2014,02,25,10,22,227.00
2014,02,25,10,23,227.00
2014,02,25,10,24,225.80
2014,02,25,10,25,223.60
2014,02,25,10,26,221.50
2014,02,25,10,27,220.20
2014,02,25,10,28,220.00
2014,02,25,10,29,220.80
2014,02,25,10,30,222.70
2014,02,25,10,31,223.00
2014,02,25,10,32,223.00
2014,02,25,10,33,225.00
2014,02,25,10,34,222.10
2014,02,25,10,35,213.90
2014,02,25,10,36,212.60
2014,02,25,10,37,211.40
2014,02,25,10,38,213.20
2014,02,25,10,39,215.20
2014,02,25,10,40,219.60
2014,02,25,10,41,225.40
2014,02,25,10,42,231.10
2014,02,25,10,43,234.90
2014,02,25,10,44,234.00
2014,02,25,10,45,229.20
2014,02,25,10,46,227.00
2014,02,25,10,47,225.70
2014,02,25,10,48,226.30
2014,02,25,10,49,228.40
2014,02,25,10,50,229.00
2014,02,25,10,51,229.80
2014,02,25,10,52,229.20
2014,02,25,10,53,225.60
2014,02,25,10,54,223.20
2014,02,25,10,55,223.00
2014,02,25,10,56,225.00
2014,02,25,10,57,225.20
2014,02,25,10,58,227.40
2014,02,25,10,59,230.00
2014,02,25,11,00,231.50
2014,02,25,11,01,237.50
2014,02,25,11,02,238.40
2014,02,25,11,03,234.80
2014,02,25,11,04,228.10
2014,02,25,11,05,227.10
2014,02,25,11,06,215.20
2014,02,25,11,07,196.00
2014,02,25,11,08,196.70
2014,02,25,11,09,207.40
2014,02,25,11,10,201.30
2014,02,25,11,11,182.60
2014,02,25,11,12,176.00
2014,02,25,11,13,187.40
2014,02,25,11,14,209.80
2014,02,25,11,15,221.60
2014,02,25,11,16,230.70
2014,02,25,11,17,311.20
2014,02,25,11,18,296.20
2014,02,25,11,19,318.00
2014,02,25,11,20,356.70
2014,02,25,11,21,705.00
2014,02,25,11,22,664.00
2014,02,25,11,23,418.00
2014,02,25,11,24,418.00
2014,02,25,11,25,550.00
2014,02,25,11,26,839.50
2014,02,25,11,27,827.10
2014,02,25,11,28,865.00
2014,02,25,11,29,865.00
2014,02,25,11,30,603.90
2014,02,25,11,31,367.90
2014,02,25,11,32,367.00
2014,02,25,11,33,367.00
2014,02,25,11,34,367.00
2014,02,25,11,35,379.60
2014,02,25,11,36,385.00
2014,02,25,11,37,385.00
2014,02,25,11,38,417.40
2014,02,25,11,39,418.70
2014,02,25,11,40,454.90
2014,02,25,11,41,450.50
2014,02,25,11,42,444.20
2014,02,25,11,43,428.10
2014,02,25,11,44,426.60
2014,02,25,11,45,464.30
2014,02,25,11,46,457.60
2014,02,25,11,47,420.70
2014,02,25,11,48,417.30
2014,02,25,11,49,415.20
2014,02,25,11,50,393.60
2014,02,25,11,51,363.90
2014,02,25,11,52,367.30
2014,02,25,11,53,386.50
2014,02,25,11,54,386.00
2014,02,25,11,55,364.20
2014,02,25,11,56,337.00
2014,02,25,11,57,315.30
2014,02,25,11,58,297.90
2014,02,25,11,59,284.10
2014,02,25,12,00,271.40
2014,02,25,12,01,263.00
2014,02,25,12,02,257.50
2014,02,25,12,03,257.90
2014,02,25,12,04,264.60
2014,02,25,12,05,272.10
2014,02,25,12,06,274.00
2014,02,25,12,07,274.20
2014,02,25,12,08,276.30
2014,02,25,12,09,277.20
2014,02,25,12,10,272.70
2014,02,25,12,11,267.00
2014,02,25,12,12,260.40
2014,02,25,12,13,256.30
2014,02,25,12,14,255.80
2014,02,25,12,15,257.50
2014,02,25,12,16,260.80
2014,02,25,12,17,264.50
2014,02,25,12,18,264.40
2014,02,25,12,19,260.30
2014,02,25,12,20,252.70
2014,02,25,12,21,245.70
2014,02,25,12,22,243.30
2014,02,25,12,23,243.80
2014,02,25,12,24,243.20
2014,02,25,12,25,233.10
2014,02,25,12,26,227.20
2014,02,25,12,27,227.00
2014,02,25,12,28,232.60
2014,02,25,12,29,245.00
2014,02,25,12,30,255.30
2014,02,25,12,31,256.20
2014,02,25,12,32,252.60
2014,02,25,12,33,249.20
2014,02,25,12,34,241.80
2014,02,25,12,35,235.90
2014,02,25,12,36,232.60
2014,02,25,12,37,229.60
2014,02,25,12,38,230.40
2014,02,25,12,39,234.50
2014,02,25,12,40,238.10
2014,02,25,12,41,240.20
2014,02,25,12,42,239.70
2014,02,25,12,43,234.20
2014,02,25,12,44,222.20
2014,02,25,12,45,209.00
2014,02,25,12,46,200.40
2014,02,25,12,47,197.30
2014,02,25,12,48,201.20
2014,02,25,12,49,210.10
2014,02,25,12,50,219.60
2014,02,25,12,51,225.20
2014,02,25,12,52,229.30
2014,02,25,12,53,231.80
2014,02,25,12,54,230.60
2014,02,25,12,55,237.00
2014,02,25,12,56,249.20
2014,02,25,12,57,258.00
2014,02,25,12,58,258.00
2014,02,25,12,59,262.50
2014,02,25,13,00,277.80
2014,02,25,13,01,291.10
2014,02,25,13,02,292.50
2014,02,25,13,03,283.40
2014,02,25,13,04,266.00
2014,02,25,13,05,241.10
2014,02,25,13,06,219.00
2014,02,25,13,07,203.90
2014,02,25,13,08,197.80
2014,02,25,13,09,193.80
2014,02,25,13,10,189.00
2014,02,25,13,11,181.70
2014,02,25,13,12,182.90
2014,02,25,13,13,191.60
2014,02,25,13,14,202.20
2014,02,25,13,15,206.30
2014,02,25,13,16,209.60
2014,02,25,13,17,213.80
2014,02,25,13,18,216.60
2014,02,25,13,19,210.00
2014,02,25,13,20,210.30
2014,02,25,13,21,221.80
2014,02,25,13,22,232.40
2014,02,25,13,23,246.00
2014,02,25,13,24,271.90
2014,02,25,13,25,296.00
2014,02,25,13,26,307.00
2014,02,25,13,27,309.80
2014,02,25,13,28,293.40
2014,02,25,13,29,262.20
2014,02,25,13,30,239.90
2014,02,25,13,31,233.00
2014,02,25,13,32,237.60
2014,02,25,13,33,225.50
2014,02,25,13,34,208.60
2014,02,25,13,35,204.20
2014,02,25,13,36,208.80
2014,02,25,13,37,214.20
2014,02,25,13,38,218.30
2014,02,25,13,39,223.20
2014,02,25,13,40,224.60
2014,02,25,13,41,221.10
2014,02,25,13,42,212.80
2014,02,25,13,43,208.40
2014,02,25,13,44,206.60
2014,02,25,13,45,203.80
2014,02,25,13,46,199.60
2014,02,25,13,47,197.20
2014,02,25,13,48,193.40
2014,02,25,13,49,189.80
2014,02,25,13,50,185.20
2014,02,25,13,51,176.40
2014,02,25,13,52,163.60
2014,02,25,13,53,155.10
2014,02,25,13,54,151.50
2014,02,25,13,55,151.00
2014,02,25,13,56,151.00
2014,02,25,13,57,154.60
2014,02,25,13,58,159.50
2014,02,25,13,59,161.90
2014,02,25,14,00,160.20
2014,02,25,14,01,163.40
2014,02,25,14,02,167.60
2014,02,25,14,03,172.90
2014,02,25,14,04,183.00
2014,02,25,14,05,190.50
2014,02,25,14,06,215.10
2014,02,25,14,07,221.10
2014,02,25,14,08,221.80
2014,02,25,14,09,216.40
2014,02,25,14,10,205.80
2014,02,25,14,11,196.50
2014,02,25,14,12,193.00
2014,02,25,14,13,197.90
2014,02,25,14,14,205.00
2014,02,25,14,15,207.00
2014,02,25,14,16,206.30
2014,02,25,14,17,206.00
2014,02,25,14,18,208.40
2014,02,25,14,19,216.20
2014,02,25,14,20,223.90
2014,02,25,14,21,226.80
2014,02,25,14,22,223.20
2014,02,25,14,23,223.00
2014,02,25,14,24,220.60
2014,02,25,14,25,212.10
2014,02,25,14,26,203.20
2014,02,25,14,27,198.50
2014,02,25,14,28,197.00
2014,02,25,14,29,197.00
2014,02,25,14,30,196.40
2014,02,25,14,31,193.10
2014,02,25,14,32,188.30
2014,02,25,14,33,185.60
2014,02,25,14,34,182.80
2014,02,25,14,35,178.40
2014,02,25,14,36,173.80
2014,02,25,14,37,172.00
2014,02,25,14,38,173.30
2014,02,25,14,39,174.00
2014,02,25,14,40,172.40
2014,02,25,14,41,172.00
2014,02,25,14,42,175.40
2014,02,25,14,43,178.60
2014,02,25,14,44,182.60
2014,02,25,14,45,183.00
2014,02,25,14,46,182.90
2014,02,25,14,47,181.20
2014,02,25,14,48,183.80
2014,02,25,14,49,189.80
2014,02,25,14,50,198.10
2014,02,25,14,51,203.00
2014,02,25,14,52,206.90
2014,02,25,14,53,209.60
2014,02,25,14,54,211.00
2014,02,25,14,55,211.80
2014,02,25,14,56,213.00
2014,02,25,14,57,211.00
2014,02,25,14,58,201.30
2014,02,25,14,59,188.40
2014,02,25,15,00,178.80
2014,02,25,15,01,172.80
2014,02,25,15,02,171.00
2014,02,25,15,03,169.40
2014,02,25,15,04,167.40
2014,02,25,15,05,163.80
2014,02,25,15,06,160.30
2014,02,25,15,07,156.40
2014,02,25,15,08,159.80
2014,02,25,15,09,165.20
2014,02,25,15,10,168.60
2014,02,25,15,11,161.10
2014,02,25,15,12,153.30
2014,02,25,15,13,156.60
2014,02,25,15,14,164.50
2014,02,25,15,15,167.80
2014,02,25,15,16,160.60
2014,02,25,15,17,147.90
2014,02,25,15,18,142.80
2014,02,25,15,19,140.90
2014,02,25,15,20,131.00
2014,02,25,15,21,123.90
2014,02,25,15,22,125.90
2014,02,25,15,23,133.40
2014,02,25,15,24,139.80
2014,02,25,15,25,134.40
2014,02,25,15,26,126.80
2014,02,25,15,27,123.40
2014,02,25,15,28,120.60
2014,02,25,15,29,118.30
2014,02,25,15,30,119.80
2014,02,25,15,31,120.00
2014,02,25,15,32,118.00
2014,02,25,15,33,118.90
2014,02,25,15,34,127.10
2014,02,25,15,35,128.00
2014,02,25,15,36,129.20
2014,02,25,15,37,134.80
2014,02,25,15,38,139.10
2014,02,25,15,39,147.10
2014,02,25,15,40,155.00
2014,02,25,15,41,158.00
2014,02,25,15,42,153.50
2014,02,25,15,43,141.80
2014,02,25,15,44,131.00
2014,02,25,15,45,123.00
2014,02,25,15,46,113.40
2014,02,25,15,47,102.80
2014,02,25,15,48,97.90
2014,02,25,15,49,97.80
2014,02,25,15,50,99.60
2014,02,25,15,51,100.00
2014,02,25,15,52,100.00
2014,02,25,15,53,97.30
2014,02,25,15,54,93.20
2014,02,25,15,55,89.90
2014,02,25,15,56,87.80
2014,02,25,15,57,82.40
2014,02,25,15,58,76.20
2014,02,25,15,59,72.00
2014,02,25,16,00,72.50
2014,02,25,16,01,74.60
2014,02,25,16,02,76.30
2014,02,25,16,03,75.90
2014,02,25,16,04,69.60
2014,02,25,16,05,58.30
2014,02,25,16,06,49.00
2014,02,25,16,07,41.90
2014,02,25,16,08,37.10
2014,02,25,16,09,33.10
2014,02,25,16,10,32.00
2014,02,25,16,11,30.60
2014,02,25,16,12,30.00
2014,02,25,16,13,28.40
2014,02,25,16,14,28.00
2014,02,25,16,15,28.00
2014,02,25,16,16,26.10
2014,02,25,16,17,26.00
2014,02,25,16,18,26.00
2014,02,25,16,19,25.00
2014,02,25,16,20,25.00
2014,02,25,16,21,25.00
2014,02,25,16,22,25.00
2014,02,25,16,23,25.00
2014,02,25,16,24,25.00
2014,02,25,16,25,25.00
2014,02,25,16,26,25.00
2014,02,25,16,27,25.00
2014,02,25,16,28,25.00
2014,02,25,16,29,25.00
2014,02,25,16,30,25.00
2014,02,25,16,31,25.00
2014,02,25,16,32,25.00
2014,02,25,16,33,25.60
2014,02,25,16,34,27.40
2014,02,25,16,35,29.50
2014,02,25,16,36,31.50
2014,02,25,16,37,32.80
2014,02,25,16,38,33.00
2014,02,25,16,39,34.80
2014,02,25,16,40,35.00
2014,02,25,16,41,35.00
2014,02,25,16,42,35.50
2014,02,25,16,43,41.30
2014,02,25,16,44,50.70
2014,02,25,16,45,60.60
2014,02,25,16,46,63.50
2014,02,25,16,47,65.00
2014,02,25,16,48,65.00
2014,02,25,16,49,65.00
2014,02,25,16,50,65.00
2014,02,25,16,51,65.00
2014,02,25,16,52,65.00
2014,02,25,16,53,63.30
2014,02,25,16,54,58.40
2014,02,25,16,55,52.80
2014,02,25,16,56,47.80
2014,02,25,16,57,43.20
2014,02,25,16,58,42.00
2014,02,25,16,59,43.50
2014,02,25,17,00,46.50
2014,02,25,17,01,46.20
2014,02,25,17,02,42.40
2014,02,25,17,03,37.30
2014,02,25,17,04,33.00
2014,02,25,17,05,30.00
2014,02,25,17,06,30.00
2014,02,25,17,07,29.70
2014,02,25,17,08,28.00
2014,02,25,17,09,28.00
2014,02,25,17,10,27.40
2014,02,25,17,11,26.00
2014,02,25,17,12,26.00
2014,02,25,17,13,26.00
2014,02,25,17,14,26.00
2014,02,25,17,15,26.00
2014,02,25,17,16,26.00
2014,02,25,17,17,26.00
2014,02,25,17,18,26.00
2014,02,25,17,19,25.40
2014,02,25,17,20,25.00
2014,02,25,17,21,25.00